Weather History for Kununurra, WE

Change the Weather History Date:

Monday, July 15, 2013

  Actual Average Record
Temperature  
Mean Temperature 77 °F -  
Max Temperature 96 °F - - ()
Min Temperature 58 °F - - ()
Cooling Degree Days 12    
Growing Degree Days 27 (Base 50)    
Moisture  
Dew Point 54 °F    
Average Humidity 51    
Maximum Humidity 88    
Minimum Humidity 9    
Precipitation  
Precipitation 0.00 in - - ()
Sea Level Pressure  
Sea Level Pressure 29.92 in    
Wind  
Wind Speed 4 mph ()    
Max Wind Speed 31 mph    
Max Gust Speed -    
Visibility 12.0 miles    
Events      
T = Trace of Precipitation, MM = Missing Value Source: Averaged Metar Reports

Daily Weather History Graph

Daily Weather History Graph

Search for Another Location

Airport:

Trip Planner

Search our weather history database for the weather conditions in past years. The results will help you decide how hot, cold, wet, or windy it might be!

Date:

Astronomy

Jul. 15, 2013 Rise Set
Actual Time 5:52 AM AWST 5:09 PM AWST
Civil Twilight 5:29 AM AWST 5:32 PM AWST
Nautical Twilight 5:03 AM AWST 5:58 PM AWST
Astronomical Twilight 4:37 AM AWST 6:25 PM AWST
Moon 10:18 AM AWST (7/15) 10:59 PM AWST (7/15)
Length of Visible Light 12h 02m
Length of Day
11h 16m
Waxing Crescent, 40% of the Moon is Illuminated
Jul 15
Waxing Crescent
Jul 16
First Quarter
Jul 23
Full
Jul 30
Last Quarter
Aug 7
New

Hourly Weather History & Observations

Time (AWST) Temp. Heat Index Dew Point Humidity Pressure Visibility Wind Dir Wind Speed Gust Speed Precip Events Conditions
12:00 AM 64 °F - 58 °F 77% 29.91 in - Calm Calm - -  
12:00 AM 64.4 °F - 59.0 °F 83% 29.92 in - Calm Calm - N/A   Unknown
12:30 AM 64.4 °F - 57.2 °F 77% 29.92 in - Calm Calm - N/A   Unknown
1:00 AM 62.6 °F - 57.2 °F 82% 29.92 in - Calm Calm - N/A   Unknown
1:30 AM 62.6 °F - 59.0 °F 88% 29.89 in - SSE 2.3 mph - N/A   Unknown
2:00 AM 63 °F - 57 °F 75% 29.91 in - South 8.9 mph - -  
2:00 AM 62.6 °F - 57.2 °F 82% 29.92 in - South 4.6 mph - N/A   Unknown
2:30 AM 66.2 °F - 60.8 °F 83% 29.89 in - Calm Calm - N/A   Unknown
3:00 AM 63 °F - 58 °F 77% 29.91 in - Calm Calm - -  
3:00 AM 62.6 °F - 57.2 °F 82% 29.89 in - Calm Calm - N/A   Unknown
3:30 AM 60.8 °F - 57.2 °F 88% 29.92 in - Calm Calm - N/A   Unknown
4:00 AM 60.8 °F - 57.2 °F 88% 29.92 in - Calm Calm - N/A   Unknown
4:30 AM 60.8 °F - 55.4 °F 82% 29.92 in - Calm Calm - N/A   Unknown
5:00 AM 60 °F - 56 °F 81% 29.93 in - Calm Calm - -  
5:00 AM 60.8 °F - 55.4 °F 82% 29.92 in - Calm Calm - N/A   Unknown
5:30 AM 60.8 °F - 55.4 °F 82% 29.92 in - Calm Calm - N/A   Unknown
6:00 AM 59 °F - 55 °F 82% 29.95 in - Calm Calm - -  
6:00 AM 59.0 °F - 55.4 °F 88% 29.95 in - Calm Calm - N/A   Unknown
6:30 AM 62.6 °F - 57.2 °F 82% 29.95 in - SSE 2.3 mph - N/A   Unknown
7:00 AM 68.0 °F - 60.8 °F 78% 29.95 in - Calm Calm - N/A   Unknown
7:30 AM 75.2 °F - 57.2 °F 53% 29.98 in - Calm Calm - N/A   Unknown
8:00 AM 80 °F - 54 °F 29% 29.99 in - NE 2.2 mph - -  
8:00 AM 80.6 °F 80.3 °F 53.6 °F 39% 29.98 in - NE 1.2 mph - N/A   Unknown
8:30 AM 82.4 °F - 50.0 °F 32% 29.98 in - ESE 5.8 mph - N/A   Unknown
9:00 AM 85 °F - 51 °F 21% 29.99 in 12 mi East 15.7 mph - -   Partly Cloudy
9:00 AM 86.0 °F - 51.8 °F 31% 29.98 in - East 8.1 mph - N/A   Unknown
9:30 AM 87.8 °F - 51.8 °F 29% 29.98 in - NE 8.1 mph - N/A   Unknown
10:00 AM 87.8 °F - 51.8 °F 29% 29.98 in - ENE 4.6 mph - N/A   Unknown
10:30 AM 89.6 °F 87.3 °F 53.6 °F 29% 29.98 in - NNE 5.8 mph - N/A   Unknown
11:00 AM 91 °F - 52 °F 17% 29.96 in - ENE 20.1 mph - -  
11:00 AM 91.4 °F - 51.8 °F 26% 29.95 in - ENE 10.4 mph - N/A   Unknown
11:30 AM 91.4 °F - 50.0 °F 24% 29.95 in - ENE 9.2 mph - N/A   Unknown
12:00 PM 92 °F - 49 °F 14% 29.92 in - East 20.1 mph - -  
12:00 PM 91.4 °F - 50.0 °F 24% 29.92 in - East 10.4 mph - N/A   Unknown
12:30 PM 93.2 °F - 48.2 °F 21% 29.89 in - ESE 9.2 mph - N/A   Unknown
1:00 PM 93.2 °F - 48.2 °F 21% 29.89 in - East 10.4 mph - N/A   Unknown
1:30 PM 93.2 °F - 48.2 °F 21% 29.86 in - East 11.5 mph - N/A   Unknown
2:00 PM 95 °F - 43 °F 9% 29.87 in - East 31.3 mph - -  
2:00 PM 95.0 °F - 42.8 °F 16% 29.86 in - East 16.1 mph - N/A   Unknown
2:30 PM 95.0 °F - 44.6 °F 18% 29.86 in - SE 10.4 mph - N/A   Unknown
3:00 PM 94 °F - 45 °F 11% 29.86 in - SSE 20.1 mph - -  
3:00 PM 93.2 °F - 44.6 °F 19% 29.86 in - SSE 10.4 mph - N/A   Unknown
3:30 PM 93.2 °F - 46.4 °F 20% 29.86 in - ESE 9.2 mph - N/A   Unknown
4:00 PM 93.2 °F - 46.4 °F 20% 29.86 in - ESE 9.2 mph - N/A   Unknown
4:30 PM 91.4 °F - 46.4 °F 21% 29.86 in - ESE 10.4 mph - N/A   Unknown
5:00 PM 88 °F - 48 °F 16% 29.88 in - ESE 13.4 mph - -  
5:00 PM 87.8 °F - 48.2 °F 25% 29.86 in - ESE 6.9 mph - N/A   Unknown
5:30 PM 84.2 °F 82.8 °F 53.6 °F 35% 29.89 in - East 4.6 mph - N/A   Unknown
6:00 PM 79 °F - 58 °F 37% 29.89 in - East 4.5 mph - -  
6:00 PM 78.8 °F - 57.2 °F 47% 29.89 in - East 2.3 mph - N/A   Unknown
6:30 PM 75.2 °F - 59.0 °F 57% 29.89 in - East 3.5 mph - N/A   Unknown
7:00 PM 73.4 °F - 59.0 °F 61% 29.92 in - SE 4.6 mph - N/A   Unknown
7:30 PM 75.2 °F - 57.2 °F 53% 29.92 in - ESE 6.9 mph - N/A   Unknown
8:00 PM 73 °F - 56 °F 46% 29.93 in - South 2.2 mph - -  
8:00 PM 73.4 °F - 57.2 °F 57% 29.92 in - South 1.2 mph - N/A   Unknown
8:30 PM 69.8 °F - 57.2 °F 64% 29.92 in - Calm Calm - N/A   Unknown
9:00 PM 69 °F - 56 °F 53% 29.94 in - East 3.5 mph - -  
9:00 PM 69.8 °F - 55.4 °F 60% 29.92 in - East 3.5 mph - N/A   Unknown
9:30 PM 68.0 °F - 55.4 °F 64% 29.92 in - Calm Calm - N/A   Unknown
10:00 PM 68.0 °F - 55.4 °F 64% 29.92 in - SW 3.5 mph - N/A   Unknown
10:30 PM 68.0 °F - 57.2 °F 68% 29.92 in - Calm Calm - N/A   Unknown
11:00 PM 68 °F - 58 °F 61% 29.91 in - SW 2.2 mph - -  
11:00 PM 68.0 °F - 57.2 °F 68% 29.92 in - SW 1.2 mph - N/A   Unknown
11:30 PM 66.2 °F - 57.2 °F 73% 29.92 in - SE 3.5 mph - N/A   Unknown